Regional Weather Roundup
Issued by NWS Goodland, KS

Home | Current Version | Previous Version | Graphics & Text | Print | Product List | Glossary On
Versions: 1 2 3 4 5 6 7 8 9 10 11 12 13 14 15 16 17 18 19 20 21 22 23 24 25 26 27 28 29 30 31 32 33 34 35 36 37 38 39 40 41 42 43 44 45 46 47 48 49 50
000
ASUS43 KGLD 281359
RWRGLD

GOODLAND FORECAST AREA HOURLY WEATHER ROUNDUP
NATIONAL WEATHER SERVICE GOODLAND KS
700 AM MST SAT FEB 28 2015

...OFFICIAL OBSERVATIONS...

CITY           SKY/WX    TMP DP  RH WIND       PRES   REMARKS
GOODLAND KS    CLOUDY     9   6  88 SE7       30.09S FOG
HILL CITY KS   LGT SNOW  14  10  84 SE8       30.28S FOG
IMPERIAL NEB     N/A     14   7  73 S10       30.12S WCI   1
MCCOOK NEB     CLOUDY    15   8  73 S10       30.21S WCI   2
AKRON CO       CLEAR      3   1  91 SE6       29.97R
BURLINGTON CO  CLOUDY     7   4  87 SE12      30.02R FOG     WCI  -8
LIMON CO       CLOUDY     5   4  95 S6        29.90F FOG
$$

...UNOFFICIAL OBSERVATIONS...

CITY           SKY/WX    TMP DP  RH WIND       PRES   REMARKS
COLBY KS       LGT SNOW  12  10  92 SE13      30.16S WCI  -3
GOVE KS          N/A     13  32 100 MISG        N/A
LENORA KS        N/A     12  32 100 CALM        N/A
NORTON KS      LGT SNOW  12   7  79 SE9       30.25R
SHARON SPRINGS   N/A     11   8  87 S14         N/A  WCI  -5
KIT CARSON CO    N/A      9   6  86 MISG        N/A
YUMA CO          N/A      8   2  76 CALM        N/A
$$


USA.gov is the U.S. government's official web portal to all federal, state and local government web resources and services.